{"data":{"norad_id":66592,"intl_designator":"2025-270E","name":"STARLINK-36066","alt_names":[],"object_type":"PAYLOAD","status":"ACTIVE","operator":null,"country":"US","launch_date":"2025-11-22","launch_site_code":"AFETR","launch_vehicle":null,"mission":null,"orbit_class":"UNKNOWN","rcs_meters":null,"size_class":null,"mass_kg":null,"dimensions":null,"purposes":["comms"],"wikipedia_slug":null,"has_3d_model":false,"image_url":null,"decayed_at":null,"tle_current":{"epoch":"2026-09-20T16:11:38.041440Z","epoch_age_seconds":71470,"freshness":"FRESH","line1":"1 66592U 25270E   26263.67474585  .00012149  00000+0  45016-3 0  9994","line2":"2 66592  43.0010  35.2410 0000820 288.1064  71.9698 15.27589273 47428","mean_motion":15.27589273,"eccentricity":8.2e-5,"inclination_deg":43.001,"raan_deg":35.241,"arg_perigee_deg":288.1064,"mean_anomaly_deg":71.9698,"bstar":0.00045016,"rev_number":4742,"period_min":94.266176481589,"perigee_km":482.45871449915,"apogee_km":483.58394446519,"semimajor_km":6861.1583294822,"source":"CELESTRAK","updated_at":"2026-09-21T09:00:35.976433Z"}}}